Flag for Canada Weather past 2 weeks in Langley, British Columbia, Canada

Now
45 °F

Cool.


Feels Like: 44 °F
Forecast: 42 / 47 °F
Wind: 3 mph from North

Location: P. Meadows Coastal Station

Current Time: Feb 1, 2015 at 6:14:48 PM

Latest Report: Feb 1, 2015 at 5:00 PM


Visibility: N/A

Pressure: 30.03 "Hg

Humidity: 95%

Dew point: 44 °F

Location of LangleyLocation

Historic Weather in Langley — Graph

°F

Langley temperature yesterday

Maximum temperature yesterday: 42 °F (at 4:00 PM)
Minimum temperature yesterday: 31 °F (at 8:00 AM)
Average temperature yesterday: 37 °F

Past Weeks' High & Low Weather Summary

 TemperatureHumidityPressure
High61 °F (Jan 26, 3:00 PM)100% (Jan 19, 8:00 AM)30.47 "Hg (Jan 19, 8:00 AM)
Low29 °F (Jan 21, 6:00 AM)56% (Jan 26, 3:00 PM)29.47 "Hg (Jan 18, 1:00 AM)
Average44 °F92%30.20 "Hg
* Reported Jan 17 5:00 PM — Feb 1 5:00 PM, Langley, Weather by CustomWeather, © 2014

Note: Actual official high and low records may vary slightly from our data, if they occured in-between our weather recording intervals... More about our weather records

Advertising

Langley weather history for previous 24 hours

 ConditionsComfort  
Time TempWeatherWind HumidityBarometerVisibility
5:00 PM
Feb 1
45 °FCool.3 mph95%30.03 "HgN/A
3:00 PM45 °FQuite cool.3 mph90%30.00 "HgN/A
2:00 PM45 °FCool.2 mph94%29.99 "HgN/A
1:00 PM44 °FQuite cool.No wind98%30.00 "HgN/A
11:00 AM44 °FQuite cool.1 mph96%30.01 "HgN/A
10:00 AM44 °FQuite cool.2 mph95%29.98 "HgN/A
9:00 AM44 °FQuite cool.6 mph96%29.98 "HgN/A
8:00 AM42 °FQuite cool.1 mph97%30.00 "HgN/A
7:00 AM41 °FQuite cool.2 mph97%30.03 "HgN/A
6:00 AM41 °FQuite cool.No wind92%30.05 "HgN/A
4:00 AM40 °FQuite cool.1 mph97%30.06 "HgN/A
3:00 AM38 °FChilly.1 mph100%30.06 "HgN/A
2:00 AM40 °FChilly.No wind97%30.08 "HgN/A
1:00 AM40 °FQuite cool.2 mph97%30.10 "HgN/A
12:00 AM41 °FQuite cool.2 mph97%30.13 "HgN/A
11:00 PM
Jan 31
40 °FQuite cool.5 mph97%30.14 "HgN/A
10:00 PM40 °FChilly.1 mph97%30.15 "HgN/A
8:00 PM38 °FChilly.1 mph100%30.16 "HgN/A
7:00 PM40 °FChilly.1 mph95%30.18 "HgN/A
6:00 PM41 °FQuite cool.2 mph93%30.19 "HgN/A
Weather by CustomWeather, © 2014

See weather overviewHow to use our weather pages